Theta_e
313 314 314 314 314 314 314 314 314 314 314 314 315 314 315 316 315 314 314 315 315 314 314 314 314 314 314 314 314 315 314 308 306 306 305 308 316 319 324 323 327 328 326 314 305 302 300 303 302 303 303 303 301 302 304 303 300 298 293 288 287 288 289 292 293 294 294 294 297 298 298 298 297 299 303 308 318 322 325 325 328 331 330 332 333 334 334 334
313 313 313 313 313 314 314 314 314 314 314 314 315 314 315 315 314 315 315 315 315 315 315 314 315 314 314 314 314 314 311 307 305 305 306 315 323 322 323 324 326 328 322 306 302 300 299 300 302 304 301 299 302 298 302 297 302 294 290 289 288 288 292 297 296 296 295 295 296 297 297 298 299 300 301 300 311 318 321 324 327 326 328 330 331 332 332 332
313 313 313 313 313 313 313 314 314 314 314 314 314 314 314 315 315 315 315 315 316 316 315 314 315 314 314 314 314 315 309 305 306 305 310 323 321 324 325 326 328 329 309 303 302 301 299 304 302 304 300 298 297 297 300 296 302 294 293 287 289 292 293 297 298 297 298 296 297 296 298 296 298 299 302 298 302 319 319 320 323 324 324 327 329 331 331 331
313 313 313 313 313 313 313 313 314 314 314 314 314 314 314 314 314 315 315 315 315 315 315 314 314 314 314 314 315 311 307 303 303 310 315 325 325 323 325 327 329 326 306 305 302 301 302 302 300 301 299 298 297 299 296 296 299 293 292 289 290 293 294 298 298 298 297 297 297 296 296 296 299 298 301 298 298 307 318 324 324 323 325 327 329 329 330 330
313 312 313 313 313 313 313 313 313 314 314 314 314 314 314 314 314 315 315 315 315 315 314 314 314 314 314 314 314 309 303 296 304 312 314 327 329 326 326 327 330 315 304 303 303 302 302 299 299 301 299 293 296 297 294 296 299 296 292 295 296 296 294 298 298 298 297 297 296 296 297 297 299 299 298 299 296 296 315 324 328 328 328 328 327 328 330 329
312 312 312 313 313 313 313 313 313 313 313 313 314 314 314 314 314 314 314 315 315 315 314 314 313 313 314 314 310 307 302 290 306 311 331 329 331 329 327 328 330 310 304 303 300 301 300 301 299 297 295 294 293 293 292 296 299 291 293 293 295 297 295 298 299 298 298 297 296 296 298 299 297 296 296 298 297 296 313 328 330 330 331 331 330 329 328 328
312 312 312 312 312 312 313 313 313 313 313 313 313 314 314 314 314 314 314 314 314 314 314 313 313 313 314 313 307 306 302 304 310 312 329 331 330 329 330 331 327 304 302 300 300 298 299 299 301 297 297 294 293 293 296 297 297 294 291 294 296 297 296 299 299 297 294 295 296 297 299 299 296 294 299 311 318 321 328 330 330 331 332 331 328 329 328 328
312 312 312 312 312 312 313 313 313 313 313 313 313 314 314 314 314 314 314 314 313 313 314 313 313 313 313 307 304 302 301 303 311 321 332 330 328 331 323 310 306 303 301 299 299 298 300 299 298 300 295 293 291 294 297 295 296 292 292 295 297 297 297 298 296 295 295 294 296 297 297 296 296 295 304 318 325 329 330 331 331 331 331 330 329 328 326 326
312 312 312 312 312 312 312 313 313 313 313 313 313 313 314 314 314 314 313 313 314 313 313 314 313 313 313 306 302 299 299 311 317 323 326 319 319 315 307 304 301 301 300 300 301 302 303 300 301 301 292 293 296 294 295 293 289 293 294 296 297 297 297 297 296 295 295 297 296 295 294 294 295 297 303 321 326 330 332 331 331 331 330 329 328 326 326 324
312 312 312 312 312 312 312 312 312 313 313 313 313 313 313 313 313 313 313 313 313 313 313 314 313 313 307 304 302 296 305 317 320 323 318 315 315 310 305 304 302 299 299 300 302 302 302 302 303 301 298 296 297 294 295 293 290 293 295 295 295 297 297 297 296 296 295 296 296 295 294 295 296 297 296 322 329 331 331 330 331 330 329 328 327 325 325 324
312 312 312 312 311 312 312 313 312 312 313 313 313 313 313 313 313 313 313 313 313 313 313 313 314 311 304 305 299 295 312 313 316 316 316 313 310 305 303 303 302 300 301 301 301 304 305 305 306 305 301 293 298 294 294 294 298 298 296 295 294 294 295 295 295 295 295 296 295 295 294 294 296 296 307 320 329 331 329 329 329 328 327 326 325 324 323 323
311 311 312 311 311 312 312 312 312 313 313 313 313 312 312 313 313 313 312 313 313 313 313 313 315 309 305 303 299 300 314 310 315 313 314 309 306 305 304 303 303 303 302 301 302 305 306 306 306 303 293 300 292 296 294 298 298 298 296 292 291 292 294 295 295 296 297 294 297 296 294 292 294 293 314 323 329 330 328 327 327 326 325 324 323 322 322 322
311 312 312 311 312 312 312 312 312 313 313 313 312 312 312 312 312 312 312 312 312 313 313 313 313 310 303 296 303 311 314 314 311 312 310 306 305 305 304 304 304 304 305 304 303 306 307 305 303 299 299 298 295 292 297 299 298 297 295 292 291 289 290 293 295 296 295 296 298 297 285 286 290 295 318 324 327 327 326 325 325 324 324 323 322 321 321 320
311 311 311 311 311 311 311 312 312 312 312 312 312 312 312 313 312 312 313 312 313 313 314 314 311 307 303 300 309 317 318 315 312 307 305 306 304 303 304 304 306 305 306 305 306 306 305 304 301 299 301 299 294 299 298 296 297 292 293 292 287 286 286 294 295 295 294 297 297 297 287 288 290 306 318 323 326 324 322 323 323 323 322 321 320 320 319 317
311 311 311 311 311 311 311 312 312 312 312 312 312 312 313 312 312 312 313 312 313 313 314 315 310 303 300 304 313 316 334 318 309 306 306 303 302 303 303 304 304 307 307 306 305 307 306 303 301 297 295 299 299 295 291 290 290 291 288 283 285 286 287 293 296 295 293 296 296 296 288 290 292 310 317 321 323 322 320 321 321 321 320 320 319 319 318 318
311 311 311 311 311 311 311 311 311 311 312 312 312 311 312 312 312 312 312 312 313 312 311 306 307 305 300 297 307 322 309 304 305 308 307 306 303 302 303 303 305 305 305 304 307 307 305 303 298 294 296 297 294 290 287 287 286 287 288 285 285 285 287 289 293 295 296 295 295 295 286 289 291 312 317 319 318 318 318 319 319 319 319 319 319 318 318 319
311 311 311 311 311 311 311 311 311 311 311 310 310 311 311 311 312 312 313 313 313 313 309 305 309 307 294 308 315 307 304 305 307 305 305 307 306 305 305 303 302 302 303 303 303 303 301 300 298 298 297 293 291 291 286 281 282 283 286 285 287 287 287 286 293 295 295 295 291 294 291 289 293 303 314 315 315 315 316 317 318 318 318 318 318 318 317 318
311 311 311 311 311 311 311 311 311 311 310 310 309 309 308 311 311 311 310 310 311 310 308 310 307 300 298 307 300 304 305 304 305 305 305 307 307 305 303 300 300 300 302 299 299 298 299 294 296 288 290 291 291 286 283 280 283 282 285 287 287 288 289 289 289 292 294 294 292 291 291 291 293 306 311 312 314 313 314 315 316 317 317 316 316 317 317 318
311 310 311 310 310 310 311 311 311 311 310 310 310 311 311 311 308 308 307 306 303 294 290 297 296 289 292 300 307 308 308 305 306 305 303 304 305 305 304 302 301 297 296 295 293 297 295 295 292 288 286 286 288 289 286 289 289 288 290 288 289 286 288 288 293 296 294 291 290 290 289 291 292 305 301 310 312 311 311 313 315 316 316 316 315 316 316 317
311 310 310 310 310 311 311 312 311 311 311 307 305 306 307 305 304 305 307 307 302 301 297 300 303 301 301 301 301 310 313 309 302 303 304 305 304 302 300 301 299 298 295 291 293 295 296 288 286 285 287 289 292 293 292 292 292 292 292 291 288 288 290 293 294 295 296 292 290 290 291 291 293 293 296 303 308 309 309 310 312 314 315 315 315 314 315 316
311 310 310 310 310 311 311 311 312 311 311 307 304 305 298 301 296 294 303 304 307 306 303 303 304 302 301 303 305 305 302 302 303 301 303 308 303 300 296 297 295 293 291 293 293 301 297 288 287 290 292 293 294 295 297 295 296 294 291 290 288 289 288 293 294 297 298 293 291 291 291 293 293 295 300 305 307 307 308 309 311 313 314 315 315 314 313 315
310 310 310 310 310 310 311 311 312 311 310 304 304 305 305 304 307 309 304 296 303 308 307 306 307 304 308 307 308 308 306 300 300 301 305 304 300 296 294 295 291 289 291 295 293 290 288 286 291 293 295 296 296 297 297 295 295 292 290 288 287 286 290 291 296 299 301 296 291 292 291 291 293 295 298 307 307 308 310 311 312 313 313 313 314 313 313 313
310 310 310 310 310 310 311 312 311 309 304 302 303 305 303 306 311 310 308 301 299 305 306 306 304 305 306 311 311 309 301 298 296 299 301 302 298 297 294 292 291 292 295 295 289 288 287 288 293 295 295 295 296 297 295 292 290 290 288 286 284 289 289 284 291 298 300 296 294 293 291 290 293 295 295 305 307 308 310 312 312 314 313 313 314 313 312 314
309 309 310 310 310 310 311 311 310 305 301 304 304 305 310 310 309 308 303 296 295 301 304 306 306 306 305 304 309 307 301 300 299 298 304 301 296 297 295 293 291 292 289 291 291 289 289 293 297 297 296 295 294 294 292 288 288 289 291 289 287 290 288 290 288 295 297 296 296 290 288 287 288 291 292 297 302 307 308 310 311 312 314 315 316 315 314 315
309 309 309 309 309 310 310 310 301 302 306 305 304 308 310 310 309 307 301 297 297 298 307 306 307 306 307 314 310 301 302 302 301 302 303 302 297 295 294 297 293 289 290 291 292 290 291 295 298 298 295 296 294 291 292 288 287 286 289 292 292 293 291 291 294 290 284 283 291 289 280 279 285 290 292 292 298 302 307 307 308 310 309 312 314 314 314 315
309 309 309 309 309 309 310 301 301 307 304 302 306 311 309 309 310 308 301 291 286 296 304 297 309 301 312 304 305 303 302 298 303 303 305 304 306 299 298 293 295 289 291 292 290 289 291 296 297 296 296 294 292 289 292 291 286 285 288 294 293 294 293 294 292 288 282 282 291 294 283 276 284 289 291 293 297 301 304 306 308 308 309 311 313 314 314 314
309 309 309 309 309 308 298 300 307 304 298 298 306 303 304 308 312 309 299 286 283 298 296 301 303 301 308 303 304 304 290 292 304 304 304 307 301 303 294 290 295 296 296 294 288 285 297 295 295 296 294 291 290 289 292 292 286 285 290 294 294 293 292 293 291 290 285 290 290 292 286 282 279 286 290 293 296 296 297 299 300 306 308 310 312 314 314 314
308 308 308 309 308 307 300 303 303 299 298 298 304 305 306 310 312 306 292 278 279 300 297 297 301 308 304 302 304 298 296 300 295 299 305 306 304 299 296 291 291 291 295 294 282 289 294 293 294 293 292 288 286 289 294 294 289 287 294 297 295 293 293 292 290 287 288 287 282 283 291 281 278 284 291 293 292 292 295 297 296 301 307 309 311 314 314 314
308 308 308 308 308 307 304 303 303 299 303 305 307 308 309 310 306 296 283 277 293 296 306 297 307 303 300 302 299 300 299 301 294 298 303 305 304 298 292 294 293 293 294 293 285 290 296 296 295 294 291 289 291 292 293 295 291 293 297 297 295 295 295 292 287 287 284 281 278 283 288 283 277 282 288 289 290 291 293 295 298 302 307 309 311 314 313 314
308 308 308 307 304 304 304 306 302 305 306 307 309 309 309 304 296 287 279 275 299 290 298 299 297 295 299 295 295 298 296 298 299 300 301 299 301 302 299 300 296 295 292 294 292 292 295 301 302 295 292 293 293 294 293 293 294 297 295 292 288 289 287 288 286 284 281 278 278 284 289 285 280 281 286 288 293 291 292 294 296 301 306 309 311 313 311 312
308 308 307 307 297 302 304 300 305 309 309 310 312 309 302 296 286 279 277 283 298 296 299 296 294 300 295 293 291 297 297 298 298 298 294 302 296 298 297 294 296 290 287 285 288 291 293 294 296 294 299 296 294 293 294 293 294 295 291 286 284 283 285 280 280 283 279 271 278 286 290 288 280 279 285 290 293 294 295 294 296 299 306 308 309 312 312 312
307 306 307 303 303 305 294 294 306 307 306 309 311 302 294 283 287 281 281 301 287 293 293 292 296 295 295 295 294 294 293 296 297 295 292 292 291 290 289 286 288 285 281 282 285 290 288 289 290 294 301 296 293 290 287 289 288 290 286 285 280 277 275 275 277 277 276 275 283 287 289 284 281 282 289 293 294 294 297 298 298 300 301 302 305 306 308 310
306 306 308 307 307 301 302 302 302 303 307 311 307 297 287 278 277 284 286 292 284 296 293 298 295 296 297 295 292 296 298 292 296 295 296 294 292 292 293 293 290 287 281 283 283 284 285 290 293 292 294 296 291 286 283 286 284 287 287 280 277 275 272 269 270 274 277 282 286 287 290 282 283 289 293 293 295 296 297 298 301 303 304 306 308 309 310 311
306 306 302 304 305 304 305 306 306 309 308 308 299 293 286 278 279 299 291 291 290 298 298 297 298 296 296 292 293 296 290 295 294 293 296 291 291 288 290 292 293 292 289 285 284 281 276 280 286 291 289 294 290 287 287 284 287 284 285 286 282 277 277 271 276 272 273 276 282 288 283 278 279 286 295 297 297 299 301 303 305 307 308 309 310 311 311 311
305 304 302 303 305 306 305 306 307 311 308 305 296 285 279 278 284 285 287 290 293 297 295 300 296 295 292 293 296 297 295 290 296 294 292 290 286 288 288 289 292 293 289 282 286 282 286 281 288 295 295 294 292 293 292 288 285 286 289 287 284 282 281 279 276 278 279 279 277 280 280 282 283 294 299 298 298 301 305 306 308 307 309 309 309 309 309 310
303 300 304 303 308 309 307 307 305 307 305 298 289 284 282 285 284 292 290 296 296 293 294 295 293 291 291 290 294 294 298 292 294 294 293 292 291 289 293 293 293 293 288 283 283 281 284 281 290 293 295 293 293 295 294 291 282 285 285 282 286 290 287 277 279 281 277 277 276 275 283 283 290 291 294 299 298 299 303 305 307 308 309 309 309 309 310 310
298 302 299 305 312 312 310 309 309 308 306 296 286 281 285 292 297 296 298 294 295 295 292 284 287 290 288 287 288 292 293 296 294 293 288 294 288 291 292 293 297 295 294 291 285 287 280 282 288 290 290 293 295 295 293 291 290 286 283 284 289 293 291 283 276 276 273 271 272 280 277 281 283 280 293 293 294 295 299 302 305 306 308 308 308 309 309 309
297 300 305 305 307 310 313 311 310 307 302 296 284 290 295 292 299 297 298 297 297 295 289 287 288 293 289 289 286 291 295 290 290 291 288 293 288 299 293 292 296 296 295 294 286 288 285 280 283 290 293 293 294 291 290 293 291 288 287 292 285 279 280 280 279 272 272 271 273 278 281 282 282 282 288 292 293 295 297 299 301 303 305 306 307 308 309 309
297 299 298 304 308 310 314 312 308 303 298 292 283 289 295 297 301 298 298 296 296 293 287 288 286 290 290 288 292 294 292 287 290 288 287 289 286 295 296 297 294 296 295 293 288 287 286 278 281 289 291 291 290 287 282 286 291 293 291 288 289 281 279 277 278 278 275 270 272 276 280 279 289 287 292 291 295 297 298 299 299 300 303 305 306 307 307 307
298 295 294 306 304 309 315 311 304 300 295 286 286 290 295 295 299 300 298 297 294 292 289 289 291 286 289 290 292 289 292 291 290 290 289 293 289 299 296 298 294 295 294 293 290 289 283 283 277 284 291 289 282 285 285 287 284 285 284 284 285 285 285 283 284 281 276 270 267 268 272 280 283 291 293 293 295 297 300 299 299 301 302 304 306 307 307 307
298 293 292 304 308 310 312 307 299 294 291 291 293 294 295 295 297 298 299 299 295 297 292 292 291 287 288 288 288 292 290 291 291 289 291 292 288 284 297 297 297 294 294 292 290 288 282 282 280 279 284 282 285 291 290 289 289 287 285 283 284 281 281 278 276 283 283 277 274 271 270 276 286 297 297 294 295 298 301 302 302 302 303 303 304 305 307 306
295 288 292 305 307 312 306 296 294 295 292 291 290 294 294 303 296 296 296 296 295 292 297 295 293 293 290 290 290 291 291 289 290 290 293 290 293 292 294 298 295 294 289 285 288 293 287 284 279 280 282 286 289 290 292 292 291 289 286 286 288 284 281 275 274 276 280 281 283 278 274 278 288 294 295 295 298 300 302 303 302 302 302 303 304 305 306 307
294 291 303 306 308 308 300 290 293 291 291 292 298 297 298 297 295 296 294 295 293 295 296 294 293 291 294 292 292 290 291 289 292 288 292 293 294 296 298 297 297 295 292 287 290 289 306 278 276 279 283 286 290 291 292 292 290 286 286 288 286 284 284 279 278 277 279 279 278 277 274 278 287 293 294 296 299 301 302 303 302 302 302 303 303 304 305 305
294 294 297 306 311 309 297 284 286 285 288 293 294 293 296 295 294 293 293 293 292 294 293 294 293 294 292 293 292 290 292 284 292 291 289 294 291 299 299 297 300 295 293 291 287 291 283 283 280 275 272 276 281 285 286 289 288 284 284 285 288 287 287 286 285 281 279 281 280 275 271 277 289 294 296 298 299 299 300 301 302 301 300 301 302 302 303 304
294 297 297 301 303 304 295 291 287 282 288 291 291 291 293 293 294 294 294 293 295 293 292 291 293 292 291 292 291 292 292 289 286 293 293 294 292 296 297 297 299 296 301 302 306 295 285 284 279 273 271 270 270 271 274 278 281 283 286 286 287 287 286 283 278 278 276 280 282 276 276 281 287 291 293 296 297 296 298 299 300 301 300 301 301 302 302 304
293 283 289 293 296 299 297 301 295 291 286 286 283 287 292 289 293 296 295 294 296 294 293 294 295 295 292 290 289 289 290 293 291 290 290 289 291 293 295 297 298 298 306 309 301 295 285 285 280 276 275 275 277 281 286 287 283 279 284 284 285 287 286 283 278 275 277 277 278 280 284 283 287 289 289 292 296 295 297 298 299 299 299 300 300 300 301 301
294 287 285 284 293 294 293 295 294 293 286 291 283 291 288 291 292 294 297 291 295 294 293 292 292 290 288 288 287 287 290 290 292 290 290 291 293 293 295 297 299 304 304 300 300 286 282 281 286 283 283 282 284 285 287 287 284 284 283 283 284 284 284 283 278 280 282 276 273 280 285 283 285 287 288 290 293 295 296 297 298 298 299 300 300 299 302 299
285 288 292 294 289 285 287 289 295 292 293 293 288 292 289 289 290 287 294 295 295 294 288 290 291 290 289 290 288 282 285 287 288 283 290 290 292 293 289 293 292 301 298 292 295 287 281 279 285 286 285 285 286 286 287 286 285 285 284 284 283 284 284 281 281 284 283 278 275 282 283 282 284 286 288 289 290 290 291 294 296 297 297 298 298 297 297 298
288 288 292 295 288 293 293 294 296 294 290 293 288 290 288 288 288 290 290 290 292 290 291 281 287 288 288 289 287 282 284 280 280 286 286 287 289 287 286 289 292 292 290 289 291 289 284 279 286 286 284 286 286 286 286 285 284 284 284 284 285 284 284 283 283 284 284 282 282 283 284 283 285 286 288 290 291 292 292 295 295 295 296 298 298 298 299 299
283 284 286 293 294 294 295 292 293 290 287 292 285 289 289 288 287 290 291 289 282 288 292 287 287 288 288 287 286 283 284 286 285 281 288 287 285 287 286 287 285 288 290 289 291 289 284 281 289 284 279 283 285 286 286 285 284 282 284 285 284 284 284 283 282 283 283 282 282 283 282 282 286 288 289 291 291 291 293 292 293 294 295 296 297 298 299 301
288 291 292 288 286 290 292 290 289 287 285 287 286 289 289 288 287 291 290 293 289 287 289 287 288 286 288 287 286 285 287 287 288 288 289 289 284 292 286 286 289 286 287 287 288 287 284 281 284 280 275 278 283 283 283 283 283 282 282 283 284 283 281 284 282 284 279 279 280 281 279 278 285 288 288 289 290 290 290 290 291 292 294 295 295 295 295 296
291 292 294 289 283 288 285 288 288 287 283 287 289 289 288 288 290 291 284 292 293 292 292 290 288 286 284 285 285 286 288 289 289 290 290 291 292 291 290 290 289 288 285 286 287 285 282 279 278 277 274 273 281 283 282 279 278 275 276 281 284 283 285 284 284 285 284 282 279 277 277 283 285 288 288 288 289 289 289 290 290 291 292 293 294 294 294 295
Wind_Speed
11 11 11 11 11 11 10 10 10 11 11 11 11 11 12 12 11 11 11 11 11 11 11 11 12 12 12 13 13 14 11 7 10 5 3 13 9 14 7 10 5 9 5 3 2 2 3 1 2 3 1 1 2 0 3 2 3 2 2 2 5 6 6 4 4 1 2 6 8 12 5 1 2 4 1 6 10 9 9 8 4 12 10 8 12 17 18 16
12 12 11 11 12 12 12 11 11 11 11 11 11 11 11 11 11 11 11 11 10 11 12 12 11 12 13 12 12 12 9 6 9 9 17 7 12 14 15 14 15 7 10 2 3 2 1 2 4 1 2 1 1 2 1 2 2 3 1 3 9 4 5 1 1 2 3 6 7 7 3 2 1 0 0 5 3 5 9 5 6 13 12 14 14 15 16 16
12 12 12 12 11 11 11 11 11 11 11 11 11 11 11 11 11 11 10 10 10 10 11 11 11 12 12 11 12 10 8 6 5 9 13 16 18 14 14 14 11 11 9 4 3 4 6 0 3 1 2 1 2 4 1 4 0 4 4 6 7 4 4 4 1 5 4 4 6 4 7 4 3 3 2 4 4 7 10 8 4 13 14 14 13 12 12 11
12 12 12 12 12 11 11 12 12 11 11 11 11 10 10 10 10 10 10 10 10 10 10 11 11 11 11 11 11 6 4 4 2 4 4 1 18 18 15 13 9 12 4 1 3 3 1 1 3 1 2 4 4 2 2 4 1 2 3 5 5 5 5 8 4 5 5 6 4 2 3 5 7 4 1 3 7 1 4 9 15 14 17 16 15 14 12 12
13 12 12 12 12 11 11 11 12 11 11 12 12 11 11 11 9 10 10 10 10 9 10 10 11 11 11 11 10 3 3 1 1 2 2 3 12 18 16 12 10 6 5 3 2 1 1 1 0 1 1 3 3 1 3 3 5 0 5 6 8 6 4 10 8 7 6 7 5 4 0 2 5 2 4 0 0 6 7 7 14 18 19 18 16 13 11 12
13 13 12 12 12 11 12 11 11 11 11 11 11 11 11 10 10 10 9 9 9 9 9 9 10 11 11 11 5 2 0 2 3 3 2 5 9 14 15 12 9 5 4 1 2 1 2 1 3 1 2 3 4 5 4 5 3 5 6 5 7 8 7 4 4 4 1 3 5 3 1 1 2 5 3 3 2 4 3 8 15 20 19 17 16 14 12 11
14 13 13 13 12 12 12 12 12 11 11 11 11 11 10 10 10 10 10 9 9 9 9 9 9 10 10 9 2 2 1 7 3 7 5 5 6 9 10 9 9 5 4 3 2 2 3 1 1 3 1 4 5 5 8 2 4 5 7 5 8 8 10 12 9 5 5 6 4 3 0 0 1 4 1 1 3 2 10 11 12 13 12 15 15 11 11 10
14 13 13 13 12 12 12 12 12 11 11 11 11 11 11 10 10 10 9 9 8 9 9 9 8 9 8 4 1 1 1 7 11 2 7 8 8 10 10 5 6 5 5 6 6 3 1 2 4 1 3 4 3 3 2 2 2 5 6 7 9 6 7 9 7 5 5 6 6 3 1 4 3 2 2 0 6 12 13 13 13 14 13 11 12 11 10 10
14 13 13 13 12 13 13 12 12 12 11 11 11 11 11 11 11 10 10 9 9 8 8 9 8 7 6 2 1 3 5 8 3 7 8 8 7 8 9 4 4 7 4 4 3 2 2 3 3 3 4 3 3 6 4 2 6 4 11 9 8 8 8 8 5 6 5 4 4 5 5 4 6 4 2 4 8 13 14 14 15 14 14 13 12 11 10 9
14 14 13 13 13 13 13 12 11 12 12 11 11 11 11 10 10 10 9 9 8 8 8 8 8 5 3 1 1 1 3 5 4 8 7 8 8 7 5 3 7 5 4 4 3 4 4 6 7 2 2 6 2 5 3 3 6 2 5 5 7 12 11 7 8 5 3 2 3 4 4 3 2 5 2 2 12 14 14 13 11 14 13 12 10 9 9 11
14 14 13 13 13 13 13 12 12 12 12 12 11 11 11 10 10 10 9 9 8 8 7 7 6 4 2 2 1 5 5 4 2 5 8 9 9 8 8 5 8 6 5 3 8 10 8 6 3 2 4 4 1 4 1 3 2 6 6 5 7 5 5 4 2 6 2 3 3 4 6 5 1 2 10 6 7 16 17 13 12 12 12 11 11 10 7 8
15 14 14 13 13 13 12 12 12 12 12 12 11 11 11 11 10 9 9 8 8 7 6 5 4 1 2 1 2 8 3 1 5 4 7 9 6 9 7 7 8 7 7 4 3 3 6 9 4 1 5 1 3 4 4 4 4 6 5 4 5 5 5 4 4 4 1 3 3 0 3 4 1 2 13 12 8 13 17 14 13 11 11 11 10 9 7 8
15 14 14 13 13 13 13 13 12 12 12 12 11 11 10 11 10 9 9 8 6 6 5 5 4 2 1 2 10 10 2 2 3 5 4 4 3 4 5 5 9 8 8 6 5 6 7 4 4 8 8 1 1 1 4 5 5 5 4 1 5 5 7 9 3 5 3 1 1 4 5 7 7 2 15 13 12 12 15 13 11 10 10 10 9 8 8 10
16 15 14 14 14 13 13 13 13 12 12 12 12 11 10 9 11 10 9 8 7 8 7 6 1 1 1 6 6 4 4 7 6 4 5 5 4 2 4 6 6 5 4 4 7 5 6 6 4 6 1 1 3 3 6 4 2 1 4 2 1 4 7 4 4 2 5 4 3 3 5 10 2 8 14 14 16 17 14 12 11 11 11 9 8 8 9 11
17 16 15 14 13 13 13 13 13 13 12 12 12 10 8 9 10 10 9 7 8 8 6 4 1 0 0 8 7 8 14 5 7 8 8 6 4 1 4 5 5 7 8 9 4 5 7 4 3 1 1 1 1 3 5 4 3 2 5 5 5 2 8 10 1 4 7 2 7 6 5 12 2 15 14 14 13 15 14 12 11 10 10 10 8 9 9 10
18 16 16 14 14 13 13 12 12 13 12 12 12 11 12 11 10 9 8 7 6 5 1 2 4 2 2 7 3 7 3 4 6 11 8 9 6 5 5 5 4 6 7 5 6 3 3 1 2 2 2 4 2 1 2 7 7 5 1 3 5 2 7 8 7 7 11 5 3 11 6 3 0 17 16 14 15 15 15 12 12 12 12 11 10 9 9 9
18 17 16 15 14 13 13 13 12 12 12 12 12 12 11 10 9 6 6 5 3 4 3 0 2 3 1 3 4 3 3 3 4 4 5 5 8 6 1 2 3 5 4 4 6 4 3 1 1 1 2 1 2 2 3 4 5 5 2 3 3 4 4 6 11 7 9 8 5 7 7 5 1 13 12 12 15 14 16 15 14 11 11 10 10 10 10 10
18 18 17 16 14 13 13 13 12 12 12 12 11 8 6 5 5 7 2 1 2 3 3 4 3 2 9 2 2 4 1 2 3 4 7 6 8 5 3 3 4 4 1 3 3 1 1 2 0 3 2 2 1 3 2 5 4 2 3 2 5 2 6 11 6 5 7 10 12 5 8 4 2 13 11 14 14 16 16 15 13 12 10 10 9 9 10 10
19 19 18 17 15 14 13 12 12 12 12 11 13 13 8 2 2 1 1 2 1 1 1 1 2 2 3 3 4 5 2 6 3 6 4 4 3 3 3 2 1 3 1 1 4 0 1 1 4 1 3 2 2 6 7 9 5 7 4 4 3 4 6 5 11 10 10 6 7 7 9 7 4 14 10 13 12 10 9 9 10 10 12 11 10 9 9 9
19 19 18 18 16 14 13 11 10 10 10 7 5 1 2 1 0 0 0 2 4 6 7 6 9 4 10 11 5 2 2 0 3 6 5 3 3 3 4 3 1 2 3 3 1 2 3 2 4 5 7 8 6 6 8 9 7 6 2 2 4 2 6 7 8 3 8 6 1 5 4 3 2 2 2 2 5 6 10 11 9 9 11 11 12 11 11 11
20 19 19 18 16 15 13 12 9 6 6 3 3 1 1 1 2 2 3 8 7 9 10 6 13 12 11 6 7 5 1 3 4 5 8 5 3 5 3 4 2 4 3 6 5 2 3 2 7 9 9 9 10 8 3 5 4 2 1 2 7 2 3 7 3 4 4 6 1 1 8 5 2 2 12 7 5 12 13 11 11 12 11 12 14 12 11 9
20 20 19 18 17 16 14 11 8 6 4 1 0 2 3 4 4 1 1 6 5 14 11 14 8 11 10 11 13 5 6 2 4 4 2 7 2 5 2 3 3 6 2 0 1 2 1 6 11 11 11 5 4 4 4 5 1 1 1 1 3 4 4 8 4 5 2 6 2 1 5 6 3 2 9 16 12 10 13 17 16 15 11 8 10 11 10 8
21 20 19 18 17 17 14 12 5 1 1 1 1 1 4 2 3 4 2 4 11 4 11 10 6 12 13 8 8 5 6 6 7 5 4 5 2 7 3 3 4 4 1 2 5 2 3 6 15 15 4 3 3 3 1 2 2 1 2 1 3 1 3 5 8 6 8 3 0 1 2 2 4 6 1 13 15 8 9 11 13 13 15 12 13 14 13 12
21 21 20 18 18 17 16 12 6 1 3 4 3 6 7 6 7 5 3 3 5 10 7 9 10 6 9 7 3 8 7 3 4 7 4 5 6 3 2 4 3 1 5 4 5 7 9 11 2 4 4 7 5 4 1 3 1 3 1 2 1 0 1 1 4 4 4 4 2 3 6 6 3 3 3 1 4 8 5 4 6 7 11 13 10 9 14 17
20 20 20 19 18 18 17 13 2 5 4 1 6 9 10 10 7 2 1 4 2 6 3 3 6 4 8 3 2 2 4 2 9 4 5 8 4 3 5 2 2 6 6 4 2 3 10 13 4 4 5 6 6 3 2 4 1 3 5 5 4 2 3 6 4 4 7 4 5 5 2 4 4 2 2 2 4 5 7 10 11 11 5 5 10 11 6 6
21 21 19 18 18 19 17 3 1 3 3 5 7 6 6 7 4 5 2 2 5 5 2 3 5 5 4 3 4 3 5 7 9 5 8 9 9 6 2 2 4 7 5 3 6 4 8 9 6 8 6 6 7 5 3 6 2 1 5 5 4 2 3 2 3 2 1 1 3 2 3 3 6 5 4 1 7 12 7 9 12 9 9 9 9 9 10 11
19 20 19 18 16 16 5 1 3 6 2 4 1 4 8 8 4 3 2 2 3 3 2 1 2 1 1 3 6 4 1 7 5 4 7 7 7 3 3 6 1 0 2 1 4 4 1 2 5 2 4 3 3 3 3 7 6 2 5 3 4 5 4 1 5 1 2 2 2 3 4 2 3 8 2 1 7 5 5 6 4 8 9 10 8 10 9 11
19 20 19 17 14 8 3 4 8 3 5 5 6 6 8 9 2 4 4 1 1 2 1 0 3 1 1 2 9 6 6 1 2 4 12 10 6 4 5 5 6 4 1 1 5 6 1 4 5 3 2 2 3 4 2 4 4 5 1 2 1 4 5 4 6 3 0 0 5 5 2 2 2 7 3 0 3 4 9 10 8 9 10 11 12 13 13 14
20 19 18 16 16 14 3 3 1 5 5 3 8 8 6 4 4 5 3 2 4 1 2 2 5 1 1 1 3 7 6 0 2 1 2 6 7 6 5 9 3 2 2 4 4 4 2 6 9 8 6 3 5 5 4 7 1 4 5 0 1 1 2 4 2 5 2 4 2 1 0 1 4 5 7 3 1 2 8 9 12 14 17 14 14 15 10 8
21 19 18 15 11 1 1 2 7 9 5 8 9 8 4 2 3 1 1 2 1 1 1 1 2 2 3 4 3 5 7 1 3 1 5 7 6 1 2 2 4 2 3 1 3 8 6 5 6 4 5 6 5 4 4 4 7 1 3 3 4 6 5 2 6 4 4 1 4 4 1 1 1 4 4 2 1 2 1 2 1 4 10 11 9 10 9 11
21 20 17 10 2 3 1 4 10 10 8 6 8 3 3 5 2 2 1 4 1 3 1 1 3 2 3 4 4 3 6 2 0 5 1 1 4 2 1 2 3 2 3 3 4 6 6 1 1 2 3 2 3 0 2 2 1 2 1 2 3 4 8 6 5 5 1 2 5 3 1 4 0 4 6 4 7 6 6 7 4 5 8 10 8 8 8 10
22 21 17 6 6 2 3 7 2 1 4 7 6 4 5 1 4 3 5 3 1 2 1 2 3 1 6 4 5 4 5 2 2 5 7 4 4 6 4 4 3 1 3 1 6 4 4 1 3 4 3 8 1 1 7 3 4 5 5 7 4 2 4 2 4 0 1 3 1 1 3 3 2 5 4 8 7 6 1 11 10 9 6 7 7 7 5 5
23 20 22 11 9 4 8 14 6 7 8 4 3 3 2 4 2 5 4 3 2 0 2 3 1 2 1 1 3 5 5 7 2 4 8 2 5 7 4 9 7 6 3 2 1 1 5 4 2 4 4 0 6 2 1 1 2 2 2 3 4 2 2 1 2 1 2 5 5 0 3 1 3 5 3 3 5 5 2 7 7 11 12 10 10 7 7 6
23 21 9 4 8 11 6 2 3 2 2 3 3 6 5 2 4 5 4 4 5 3 5 5 11 5 0 1 4 3 3 4 5 3 9 2 3 3 3 4 5 3 2 1 1 2 1 3 5 2 1 2 3 5 9 4 2 3 4 6 7 7 4 3 3 4 4 5 2 4 3 2 2 4 4 5 6 9 6 9 7 8 11 9 8 10 9 8
26 17 7 5 5 10 13 9 2 0 1 1 5 4 5 5 2 2 3 2 2 3 4 1 7 3 9 6 6 11 6 3 6 4 7 7 4 3 5 4 4 5 3 3 3 1 3 5 5 3 3 3 5 3 4 3 4 1 3 6 6 6 6 3 6 5 2 0 2 1 2 3 2 3 4 1 8 11 11 11 11 10 8 10 11 9 8 7
13 5 3 4 4 5 11 8 5 3 4 5 5 1 5 6 2 3 3 3 1 2 10 12 10 4 2 5 6 5 3 2 5 2 2 3 3 7 6 4 5 9 6 6 3 1 1 2 3 5 2 5 5 4 2 4 1 2 3 1 5 5 8 3 2 0 4 5 3 1 1 4 5 3 3 3 7 7 11 11 12 10 8 11 10 8 7 6
7 7 4 3 3 3 7 8 8 7 5 6 4 4 6 4 5 4 2 2 2 6 5 4 5 1 3 2 2 3 2 1 2 3 4 3 4 3 2 4 6 7 11 9 1 3 4 5 5 3 2 3 4 1 4 4 7 4 2 6 2 5 4 5 3 1 2 3 4 1 2 1 2 2 7 9 2 4 2 8 15 14 12 12 9 8 6 7
7 4 5 6 11 6 9 10 11 5 5 4 2 6 2 3 3 6 2 7 7 2 3 2 3 3 0 1 4 4 6 3 2 6 5 5 3 2 4 3 5 2 4 3 5 2 4 3 2 2 1 6 6 2 3 1 2 3 2 2 4 1 1 4 5 0 1 1 2 1 1 1 1 2 4 5 4 4 4 6 4 8 10 13 11 10 8 9
3 2 6 7 2 11 10 11 7 7 4 2 2 1 4 6 4 6 6 6 4 4 3 5 4 2 4 4 6 4 2 6 3 3 3 0 3 1 1 1 3 4 4 8 4 1 3 3 3 3 2 2 3 5 2 7 9 3 2 3 0 4 3 2 3 3 5 2 1 3 4 1 1 1 3 3 8 9 6 6 4 3 2 5 10 8 9 8
2 2 4 4 4 8 12 9 6 5 3 3 4 3 2 4 6 7 6 3 3 1 4 3 1 0 2 2 3 2 4 4 5 1 3 4 1 2 5 5 1 2 4 6 3 2 1 2 2 4 4 2 3 2 2 1 3 7 7 2 1 1 2 5 1 2 2 3 3 2 2 1 2 3 2 2 2 5 13 8 4 3 3 3 4 6 6 6
2 1 5 3 5 7 10 6 4 4 3 2 2 2 3 3 4 5 9 8 5 5 6 2 1 1 2 1 2 3 2 6 2 2 2 1 1 1 1 2 5 1 1 7 8 3 3 1 3 3 5 1 2 1 3 2 1 1 2 2 6 3 2 2 3 3 2 4 2 3 2 5 7 2 3 4 4 2 8 11 7 6 6 4 3 4 6 6
2 2 4 5 6 6 10 6 1 1 2 3 4 3 2 4 4 10 8 7 8 6 5 3 2 3 2 3 3 2 2 2 3 2 2 2 2 1 1 10 8 2 5 2 1 1 3 3 4 0 1 2 3 2 0 5 1 1 2 5 1 3 7 5 2 2 2 0 4 4 5 1 3 2 3 3 6 8 6 9 7 6 5 6 5 3 3 7
1 4 9 7 6 5 8 3 3 3 3 4 2 4 6 6 7 6 7 7 7 4 1 2 3 2 2 2 3 4 4 1 1 4 7 6 4 6 7 5 2 6 5 1 2 1 5 2 1 4 6 3 3 1 6 8 5 7 5 5 6 3 1 6 4 4 3 0 2 1 1 2 3 3 2 1 2 4 4 11 12 4 5 5 5 4 6 6
2 3 7 5 11 5 6 2 3 7 4 3 2 5 4 4 4 5 4 4 4 2 1 1 3 3 1 3 2 2 4 1 2 6 1 6 5 10 13 6 2 1 1 2 2 3 2 2 6 2 3 7 8 7 7 6 7 2 1 2 2 4 7 2 4 2 3 1 4 7 3 1 1 2 4 7 9 8 7 6 4 10 5 5 6 4 4 5
3 2 2 7 10 8 3 6 4 2 1 1 1 3 4 3 5 6 3 2 5 5 4 4 6 5 3 3 1 1 7 3 0 9 1 1 4 5 9 5 9 4 3 2 5 3 5 1 2 2 2 0 1 1 2 4 5 3 1 4 3 5 5 6 2 2 3 1 4 3 1 3 4 2 5 6 8 7 5 7 4 4 6 6 4 5 4 5
3 3 5 6 6 5 3 5 1 2 0 2 1 4 1 2 3 1 3 7 5 8 8 4 8 6 7 5 6 8 8 8 6 1 6 5 4 4 4 6 6 4 6 9 4 4 2 1 3 4 6 6 3 2 2 0 2 3 7 5 5 2 3 6 4 4 2 1 2 2 7 2 3 5 4 4 7 8 7 6 9 7 5 5 6 6 5 5
1 5 3 7 7 5 6 4 9 7 4 1 1 2 4 2 3 1 8 3 7 3 5 12 9 7 4 3 3 7 6 5 6 7 6 3 4 2 6 7 6 7 9 5 4 5 3 3 0 6 3 5 4 1 2 1 1 2 5 6 5 5 2 6 4 0 3 5 2 1 1 8 2 7 4 1 1 4 4 7 7 8 9 9 8 6 5 4
5 2 3 2 1 4 8 9 9 8 7 4 3 4 6 5 9 6 3 4 4 8 4 7 14 12 11 4 5 5 6 5 8 4 7 7 4 7 4 7 4 4 4 2 3 4 3 2 1 2 1 2 2 2 4 4 3 3 5 4 5 2 6 5 1 1 2 1 3 1 5 5 3 3 6 6 4 3 3 3 3 3 3 6 7 6 3 2
3 1 1 6 3 4 3 10 10 4 10 10 1 9 9 10 10 6 4 4 7 8 8 4 6 12 12 11 6 4 6 3 6 3 4 6 3 3 4 4 6 9 6 3 4 1 4 1 1 2 2 4 4 5 6 8 5 4 4 4 1 5 3 5 3 3 8 3 3 8 10 6 2 4 5 3 6 4 4 5 6 4 4 6 6 5 5 4
5 3 5 4 1 3 8 9 6 10 9 11 5 8 8 8 8 10 12 8 3 5 6 9 7 9 10 11 10 6 3 3 2 1 4 5 6 4 1 2 2 7 6 2 0 3 4 1 3 2 3 2 2 5 8 7 7 5 6 6 4 2 5 4 3 2 7 7 5 8 11 6 4 3 3 4 4 3 12 12 8 7 7 6 6 4 3 1
2 1 1 3 5 6 6 9 7 7 10 12 7 7 6 10 7 6 10 9 8 3 2 4 2 7 9 10 10 8 3 2 1 1 4 2 2 1 2 2 3 2 4 3 2 3 4 1 2 3 2 1 2 5 3 5 7 7 6 8 9 6 6 4 4 3 4 4 2 8 7 3 4 7 4 6 8 11 10 9 9 8 7 8 8 6 4 1
1 2 0 2 4 7 3 4 10 9 9 7 7 7 6 6 5 3 3 7 8 7 2 4 4 9 5 10 9 5 5 4 5 6 3 5 5 6 3 3 1 1 1 1 0 1 1 3 2 2 3 2 3 3 5 5 6 5 4 5 4 5 7 5 7 9 3 4 5 5 3 1 1 3 10 9 11 11 10 7 6 8 7 7 7 6 6 6
Wind_Direction
326 320 319 318 317 315 313 312 310 309 310 309 311 309 311 310 313 312 310 307 307 306 304 302 307 311 312 310 313 314 329 325 307 298 229 240 198 221 201 222 245 228 173 191 276 322 328 312 270 261 349 86 258 226 236 196 185 103 200 156 247 225 236 219 236 78 273 324 313 313 322 94 47 335 344 53 73 78 60 52 43 51 58 94 111 125 135 138
324 323 321 317 315 314 314 312 310 309 310 310 310 308 308 310 311 307 307 310 306 303 306 309 317 310 308 308 316 323 337 299 288 270 238 218 191 203 220 239 254 268 139 134 215 206 203 276 250 206 130 263 217 225 146 269 155 147 202 149 238 204 247 247 237 291 328 283 296 298 278 359 96 160 327 92 116 94 69 40 82 86 83 91 103 126 135 141
325 321 316 314 311 310 308 308 305 303 303 304 303 306 309 313 310 308 308 307 303 312 317 310 309 306 301 314 320 341 336 310 275 263 260 226 215 199 210 220 236 158 161 161 207 179 188 34 10 45 224 251 268 233 185 256 251 230 166 240 248 214 248 253 219 252 254 252 304 333 327 12 312 343 326 118 177 117 125 131 77 107 118 117 121 129 134 139
323 318 315 311 311 309 310 306 304 302 302 300 300 299 302 304 304 304 308 309 312 315 314 305 306 304 308 316 324 336 323 286 308 251 253 192 195 202 203 205 185 176 161 136 128 159 179 336 328 331 291 210 276 205 224 249 176 264 147 213 235 222 245 265 238 240 257 275 274 263 323 22 321 314 123 185 100 318 187 165 143 144 142 142 145 145 148 149
323 317 313 310 307 310 306 302 302 301 300 298 302 303 305 304 301 303 304 305 305 309 306 308 306 309 313 312 324 348 322 31 203 233 267 311 189 196 199 189 189 176 163 145 135 229 208 250 30 351 219 257 242 277 240 241 216 333 211 220 227 254 255 256 251 266 255 253 285 278 74 284 300 21 359 158 171 207 195 205 148 146 144 145 149 150 145 147
323 319 312 309 307 309 305 300 297 298 299 298 296 297 297 298 300 302 302 303 307 307 312 310 310 307 309 316 305 273 263 89 277 276 63 0 178 187 189 184 175 149 132 166 139 108 121 243 154 172 242 195 224 186 259 207 179 244 274 268 247 241 236 263 249 245 218 282 272 304 223 231 63 311 281 0 237 229 208 145 148 152 156 147 136 140 140 138
322 319 313 308 308 307 304 300 299 299 299 296 295 294 297 297 298 299 302 305 304 306 308 311 305 312 325 314 257 204 196 274 290 250 83 85 110 146 150 147 144 138 141 136 151 183 167 154 152 224 252 237 253 205 240 230 172 205 251 252 263 237 234 248 253 249 245 239 242 215 62 322 340 328 320 89 306 99 100 119 125 123 124 131 131 128 129 131
322 317 312 309 310 307 303 302 299 300 299 295 294 295 296 295 295 296 300 302 302 302 307 309 313 320 336 340 169 263 139 251 242 168 133 102 96 109 115 117 145 148 158 184 168 173 118 216 218 228 222 195 220 185 260 300 190 210 257 250 252 247 240 250 231 241 255 256 251 245 235 248 193 210 64 298 109 108 112 116 120 121 115 111 116 115 108 119
322 315 312 310 310 306 302 301 301 301 297 294 293 294 296 300 300 302 302 300 299 301 303 308 316 319 327 259 291 334 258 231 213 151 135 124 126 120 129 140 170 159 187 184 177 134 139 251 238 192 263 216 246 253 270 253 303 223 227 245 258 253 249 246 259 233 234 258 231 237 238 263 243 176 64 177 112 115 117 120 127 123 117 119 119 120 120 129
323 318 311 314 309 303 302 301 303 299 297 294 294 293 294 292 293 294 298 300 299 299 297 305 311 340 3 266 244 43 259 154 105 147 137 130 123 131 172 144 161 170 167 202 154 180 183 219 187 215 270 277 265 258 249 167 237 231 279 255 241 250 244 251 245 285 284 254 237 221 244 254 272 156 76 288 129 118 116 121 125 123 123 124 122 118 126 133
327 320 318 314 307 302 302 303 301 297 295 295 293 291 290 290 290 292 295 296 297 294 292 294 307 11 306 274 129 214 247 109 118 134 147 140 135 140 189 171 176 171 190 181 199 195 216 231 251 323 282 227 347 291 238 217 326 300 259 276 268 263 226 224 267 276 312 306 194 194 252 234 300 106 156 166 154 132 127 129 127 124 124 126 125 124 128 121
331 327 322 314 307 302 303 303 299 296 294 294 294 298 297 299 299 299 296 296 295 293 289 285 320 287 254 244 189 229 286 128 147 159 160 149 156 189 177 179 177 188 178 197 260 236 223 232 229 291 249 285 324 313 300 282 321 280 292 317 284 346 332 305 269 256 164 269 281 261 358 323 348 202 161 147 150 137 128 131 130 130 130 131 128 129 130 127
337 329 322 315 309 309 306 302 298 295 297 296 293 289 289 289 289 285 287 288 284 286 292 305 319 275 297 318 226 235 239 11 158 169 184 198 154 175 191 188 193 198 186 189 226 228 231 227 220 224 234 158 194 264 278 318 285 309 333 259 334 350 319 260 246 252 258 227 115 85 299 269 262 143 153 143 147 136 127 135 140 140 140 140 139 137 122 67
340 333 328 322 317 310 304 299 300 300 296 294 290 288 284 283 287 288 284 274 271 267 272 275 297 321 205 248 275 253 224 174 201 170 216 204 132 232 211 221 208 226 247 229 253 257 274 245 207 230 208 215 279 295 340 318 356 291 275 40 287 358 276 264 181 238 271 191 169 96 232 272 282 138 157 156 150 146 142 147 148 152 150 144 138 135 117 115
342 339 332 324 316 310 306 306 303 299 295 294 292 288 283 283 283 281 279 279 264 253 255 267 200 123 352 269 265 266 264 148 185 202 199 162 166 288 232 233 235 214 216 224 239 239 233 302 299 45 275 257 36 28 318 347 331 308 23 318 332 211 269 291 256 214 219 278 141 151 243 251 188 166 164 162 156 142 141 154 158 158 149 145 141 134 129 143
344 341 336 329 321 316 311 304 299 298 299 297 296 293 287 281 278 275 272 263 258 248 238 354 194 200 358 289 259 320 344 132 206 196 206 164 166 201 223 213 239 234 228 248 220 273 281 218 209 195 292 0 31 59 3 14 339 344 154 274 281 276 268 336 275 195 213 220 161 175 226 322 130 181 170 164 156 148 142 158 168 160 152 145 147 141 140 143
344 342 340 333 326 319 312 307 305 305 303 297 294 287 283 278 275 272 275 273 256 195 211 233 115 182 357 236 308 307 224 229 153 165 185 201 175 201 200 239 254 251 274 298 295 321 302 7 283 33 7 199 154 79 12 358 314 306 358 241 215 239 285 291 283 260 210 182 235 207 206 224 285 180 159 162 157 149 152 168 168 159 151 151 148 150 153 160
344 343 341 338 329 324 316 313 309 305 303 297 282 277 278 275 289 311 272 205 203 204 229 259 244 289 274 326 283 235 185 139 183 193 183 197 180 194 178 211 235 207 47 336 337 205 290 279 19 190 358 6 49 65 121 239 193 245 321 328 314 273 217 244 272 284 157 196 204 197 208 245 348 150 166 171 171 161 165 163 158 151 149 150 150 155 164 163
343 343 340 339 334 324 318 313 310 309 308 304 295 276 264 251 338 226 225 166 129 42 8 232 122 141 144 210 276 319 256 202 134 135 223 179 219 192 199 231 250 122 271 95 284 187 326 303 22 32 265 299 232 163 181 230 202 228 224 201 216 279 301 246 268 254 148 164 198 155 199 214 218 159 189 182 177 163 144 135 143 149 152 151 156 162 171 174
343 342 341 339 336 327 319 315 311 312 321 320 340 35 108 49 5 34 348 239 227 209 236 191 207 268 307 288 268 229 278 298 140 218 194 187 126 182 231 201 249 124 118 186 277 264 125 164 215 214 222 227 242 205 206 231 236 250 177 181 239 290 302 303 321 325 143 115 117 171 97 43 323 235 64 180 120 142 145 148 152 160 157 159 165 169 173 178
342 341 340 339 337 333 323 320 316 318 317 317 303 302 294 161 64 299 217 224 224 234 237 229 190 218 239 287 296 316 305 256 194 203 207 170 141 119 243 159 175 230 226 192 176 272 83 206 248 227 219 209 222 228 219 251 202 189 86 28 307 39 325 293 289 345 355 107 320 4 112 162 204 107 134 114 151 166 165 158 162 166 170 170 169 168 171 180
341 339 338 338 335 333 324 316 315 315 324 318 329 275 273 222 197 160 30 304 245 224 226 237 219 245 251 250 260 268 308 262 227 228 255 145 209 162 282 169 158 219 284 87 20 349 120 209 243 235 229 230 264 279 216 222 285 331 67 243 327 313 249 289 311 355 3 83 183 215 158 201 226 215 132 148 183 189 177 169 171 165 170 172 173 164 165 157
338 339 336 334 333 330 328 315 330 102 303 136 170 212 242 233 6 345 351 260 284 197 212 224 237 237 257 254 251 170 206 240 212 226 210 153 130 190 163 175 192 221 226 128 198 192 270 276 242 239 201 179 270 222 180 44 51 298 343 53 253 253 20 304 310 342 5 90 220 164 54 278 304 302 157 181 160 190 195 176 164 168 169 172 176 173 169 165
337 337 334 332 330 329 324 324 309 313 208 213 235 221 245 276 298 335 23 262 293 293 203 221 202 219 237 218 211 189 208 212 204 216 211 145 163 172 163 187 205 222 243 202 190 186 219 241 261 280 181 170 204 227 118 66 324 295 185 187 211 329 239 205 269 323 327 346 55 32 31 337 11 49 353 344 203 162 180 166 164 188 182 176 168 175 173 167
332 333 334 331 330 327 323 313 308 240 196 191 245 248 258 264 260 184 138 319 343 280 209 230 192 225 237 160 209 184 211 215 209 179 182 157 149 120 216 148 137 234 229 222 154 244 269 264 266 270 216 181 176 211 203 127 319 317 264 198 214 214 192 290 306 35 24 339 341 100 21 309 306 328 242 280 120 185 183 171 187 183 175 150 172 183 181 160
329 330 333 332 327 330 308 331 275 327 274 259 245 277 294 309 261 168 113 75 294 270 294 269 141 249 162 221 138 191 122 224 201 189 165 187 171 166 109 216 165 228 223 227 224 209 226 243 191 213 174 177 163 175 218 130 170 89 273 178 190 175 179 135 342 64 39 92 290 79 143 264 328 338 294 316 189 182 186 198 187 169 177 182 180 175 174 167
327 327 329 331 329 336 3 296 327 293 310 284 112 333 321 309 304 108 44 347 345 243 178 302 190 314 217 211 168 138 236 257 200 160 171 162 185 148 152 230 314 16 160 184 45 298 320 289 184 108 116 112 98 188 241 147 116 235 241 180 137 109 102 111 111 125 231 263 320 33 110 170 316 292 269 314 142 180 189 223 212 194 182 182 175 179 173 169
323 326 324 325 323 336 216 316 335 311 238 270 339 327 312 299 338 45 83 9 333 262 125 203 228 355 235 238 152 174 205 181 90 237 185 180 147 152 195 213 188 188 245 68 280 255 235 269 162 141 119 115 174 203 222 130 139 216 298 174 225 158 160 140 92 87 330 125 284 324 359 60 279 270 314 108 105 222 213 206 197 193 194 177 180 183 183 175
321 322 322 317 318 307 215 199 196 242 235 321 318 308 310 324 72 107 119 101 253 59 297 148 289 98 258 76 195 197 243 107 181 250 178 149 176 131 208 233 182 195 210 145 197 294 288 202 209 166 128 187 227 225 171 146 284 277 197 278 44 34 86 114 107 82 353 64 285 279 303 212 289 279 325 335 45 232 215 191 189 186 185 183 182 188 174 157
316 315 319 319 322 79 171 207 230 241 300 317 302 299 322 43 39 43 344 245 330 305 227 246 131 223 165 160 208 216 236 184 149 15 151 160 213 57 221 160 175 205 258 356 165 219 247 259 178 119 169 202 193 230 170 171 212 210 68 54 6 30 358 14 70 98 62 59 255 238 294 132 279 272 241 326 296 222 226 359 317 186 177 173 172 161 150 157
314 313 310 309 256 254 169 269 249 245 250 278 305 333 58 35 109 107 212 231 281 242 314 21 253 92 146 156 206 225 243 241 210 129 331 141 166 191 0 355 21 47 35 3 327 312 332 327 134 252 192 104 117 104 298 187 164 118 80 111 42 342 7 26 347 43 113 274 258 257 118 116 150 293 308 254 286 256 148 122 151 144 152 150 148 160 154 162
314 310 299 282 216 269 183 233 231 90 338 332 358 51 69 38 6 145 216 341 44 279 106 266 235 238 194 194 175 188 201 235 181 158 170 202 148 181 235 201 181 4 329 280 266 358 336 282 250 299 218 146 188 37 316 351 15 80 77 43 97 272 33 341 7 5 218 190 251 304 72 37 197 221 246 303 320 320 221 136 142 134 123 110 114 127 135 140
314 306 302 273 223 211 241 248 303 331 329 351 43 54 64 105 212 244 277 301 250 162 278 348 291 252 295 242 237 206 186 226 178 193 171 194 139 213 211 189 181 142 182 242 201 14 274 291 327 288 346 159 110 136 274 301 351 91 173 136 77 77 56 222 275 218 322 302 260 171 76 198 253 310 245 299 323 2 33 91 107 114 113 112 115 111 108 107
313 310 304 221 190 210 229 228 228 277 357 33 78 44 62 93 242 233 222 248 251 330 335 349 312 304 112 193 257 187 180 224 164 204 168 178 129 204 301 292 153 84 122 208 228 201 43 351 307 168 262 227 113 162 179 174 170 196 151 144 180 140 161 200 192 194 204 196 267 297 66 239 90 207 302 331 51 58 49 67 64 76 95 96 94 93 86 89
313 297 257 260 233 234 230 229 179 88 59 69 61 89 139 230 247 221 241 283 284 302 287 248 254 266 309 322 258 203 173 249 208 152 183 134 215 181 188 232 223 132 123 112 255 94 205 198 256 233 232 160 163 198 136 93 41 277 135 83 97 217 145 172 202 145 213 117 4 332 207 178 141 221 265 322 83 93 89 80 79 67 71 86 77 70 82 86
314 300 227 252 199 247 187 200 166 166 112 71 88 149 197 190 207 191 227 201 245 311 334 326 306 174 231 289 300 292 152 134 250 181 358 180 200 197 217 188 190 178 137 163 201 208 38 282 263 316 74 175 193 157 194 121 116 260 60 37 231 190 117 98 35 156 95 55 252 189 332 327 296 349 353 15 93 95 102 106 99 87 64 71 75 69 64 72
328 326 340 254 244 181 155 147 151 143 98 100 110 226 209 268 219 275 279 263 325 350 320 355 297 166 152 273 315 321 324 202 226 181 277 344 348 330 302 263 198 168 178 140 325 176 140 238 302 43 331 314 307 278 163 157 148 75 103 237 96 83 111 122 181 344 68 134 256 358 210 276 74 253 329 15 43 65 105 140 129 127 132 114 114 111 102 82
316 296 254 248 237 168 137 144 135 123 93 96 177 224 214 232 196 230 310 323 322 342 317 275 272 258 133 59 312 358 323 247 228 161 212 200 247 220 299 318 280 205 168 156 121 248 109 341 307 343 32 295 346 55 12 351 53 153 198 188 92 241 18 323 89 301 107 250 257 321 188 42 144 243 337 352 68 57 55 23 68 127 131 125 130 132 128 120
246 335 322 258 249 150 140 142 121 118 87 99 228 146 269 241 277 275 273 275 278 292 291 235 217 250 157 157 197 264 189 226 192 200 176 271 172 257 268 258 353 35 129 112 82 198 58 148 301 297 44 300 10 55 9 316 334 8 80 22 245 103 170 129 197 171 120 227 67 285 45 155 255 246 310 283 147 132 82 68 63 42 25 120 129 126 123 116
353 19 287 273 13 127 134 125 89 92 89 174 211 226 256 291 281 281 274 267 282 209 227 249 198 231 335 199 145 232 252 236 181 289 83 287 101 274 342 345 334 314 55 78 115 105 79 110 184 278 302 24 51 5 38 37 4 335 16 335 28 29 212 105 35 99 157 162 165 155 39 282 274 229 224 263 200 155 127 122 94 75 70 47 80 110 104 101
285 129 275 262 23 134 113 84 86 155 161 256 166 228 265 266 311 291 291 276 279 245 239 234 215 184 209 2 333 204 186 252 195 130 119 292 104 48 357 54 282 266 67 40 56 356 81 12 189 308 20 40 203 232 8 327 288 255 203 218 166 112 65 112 230 343 85 99 199 107 232 262 271 220 239 191 166 146 123 122 123 127 118 104 97 103 116 99
38 359 259 290 8 159 114 113 203 148 135 181 229 198 245 241 252 266 276 275 237 252 225 241 258 221 203 208 204 200 197 258 201 114 107 133 280 24 257 17 355 351 90 81 162 249 146 150 95 19 198 229 237 274 251 36 94 106 124 355 34 107 101 98 118 267 12 355 117 132 119 282 245 240 258 203 156 142 127 112 119 122 117 122 112 111 90 105
37 232 272 324 330 129 92 58 26 317 238 230 224 252 249 267 268 282 292 289 291 229 204 54 297 340 336 33 24 33 17 1 149 165 153 160 179 230 309 18 335 2 74 322 24 304 64 72 37 308 309 292 317 172 71 32 46 24 3 23 31 19 159 164 172 187 128 339 69 21 82 247 287 319 282 183 82 82 101 129 129 107 111 104 113 117 110 94
273 293 318 349 4 56 83 129 190 244 253 292 233 259 221 252 263 282 269 309 301 331 112 49 352 42 287 16 51 66 15 43 8 63 58 138 185 189 223 208 148 55 75 223 130 259 71 296 113 44 356 341 344 358 2 349 51 80 297 343 24 29 20 9 85 62 96 238 167 116 181 259 272 351 93 83 75 79 81 29 88 121 111 113 113 113 112 120
291 273 262 318 1 25 113 216 174 197 274 257 267 299 288 263 221 210 229 33 19 8 1 27 4 3 29 343 82 76 55 89 44 359 42 24 128 171 204 155 114 78 54 146 132 117 92 176 91 117 138 111 327 324 327 342 313 291 318 3 19 55 36 32 18 347 94 278 93 106 187 252 269 31 69 90 98 84 72 95 62 91 121 115 116 117 118 127
7 8 311 336 7 356 69 301 37 344 273 331 351 266 245 285 305 92 72 73 20 74 46 18 15 56 28 22 32 32 22 34 70 329 21 13 348 40 15 79 62 110 105 87 77 73 128 75 99 149 147 178 200 211 236 133 5 19 312 354 342 14 44 100 119 79 114 232 69 227 154 150 42 25 42 82 123 128 131 133 134 134 136 138 144 147 151 154
355 53 351 341 328 10 349 326 8 8 345 269 113 299 11 341 299 9 5 91 4 67 61 34 21 35 336 41 59 44 349 40 7 60 9 343 355 52 349 60 64 64 85 80 82 78 65 56 61 105 113 174 181 194 265 344 14 298 353 330 13 36 39 75 80 154 162 71 330 273 182 107 15 346 356 75 212 130 144 148 150 152 162 162 166 161 137 129
50 307 57 297 205 315 352 338 339 326 342 33 47 355 11 8 27 23 343 56 65 34 89 17 38 36 24 28 92 60 331 65 44 22 328 5 350 353 28 2 59 360 72 20 27 108 130 123 259 98 95 98 110 40 24 60 63 43 29 10 7 15 63 88 84 188 137 124 188 7 52 72 315 331 347 354 4 79 125 118 136 116 74 44 36 35 36 85
87 309 351 343 68 287 229 268 296 302 26 15 78 30 32 35 48 29 12 336 33 16 40 88 31 39 39 24 70 97 10 61 1 334 31 335 358 344 25 347 356 8 32 35 19 57 88 334 176 105 92 39 15 42 50 55 25 47 27 358 23 96 118 115 84 56 96 109 141 120 90 72 343 319 329 320 318 360 40 54 54 52 88 104 100 90 74 27
2 21 328 357 316 296 327 354 6 33 37 8 44 17 36 29 39 32 32 30 37 25 16 75 52 45 47 47 48 74 50 113 133 350 329 7 326 30 8 112 298 332 17 28 60 346 102 265 138 70 70 345 337 49 53 57 62 52 14 22 19 85 68 39 73 18 69 60 57 83 78 48 331 328 305 332 323 12 48 41 39 42 47 68 82 79 64 15
276 209 271 331 10 358 3 11 13 34 38 360 19 14 40 32 35 37 64 39 60 60 35 97 84 52 28 42 44 44 5 15 313 205 233 268 301 294 50 287 40 321 349 3 30 324 70 201 54 71 78 321 321 64 34 65 81 74 26 2 356 4 58 4 49 325 114 142 126 76 59 40 300 346 26 30 48 52 54 40 36 33 40 50 54 37 13 329
271 253 278 171 72 351 30 11 28 36 23 346 348 25 25 26 43 47 62 14 40 57 64 113 106 85 31 34 16 347 309 299 297 288 269 255 237 271 234 253 271 293 288 39 348 85 147 108 76 77 75 263 292 70 59 45 35 10 347 306 297 45 99 78 38 23 32 138 89 110 171 220 264 291 74 46 63 60 51 32 27 29 34 50 54 37 18 8